Angoon, AK

3:34 AM AKST on January 24, 2018 (GMT -0900)
Angoon

Weather History for PAGN - January, 2014

Change the Weather History Date:

Wednesday, January 1, 2014

  Actual Average (PASI) Record (PASI)
Temperature  
Mean Temperature 72 °F -  
Max Temperature 104 °F 38 °F 60 °F (1946)
Min Temperature 39 °F 31 °F 5 °F (1950)
Cooling Degree Days 8    
Growing Degree Days 22 (Base 50)    
Moisture  
Dew Point 41 °F    
Average Humidity 92    
Maximum Humidity 100    
Minimum Humidity 87    
Precipitation  
Precipitation 0.08 in - - ()
Sea Level Pressure  
Sea Level Pressure 29.79 in    
Wind  
Wind Speed 5 mph (ESE)    
Max Wind Speed 13 mph    
Max Gust Speed 21 mph    
Visibility 7 miles    
Events Rain    
Averages and records for this station are not official NWS values.
T = Trace of Precipitation, MM = Missing Value Source: NWS Daily Summary

Daily Weather History Graph

Daily Weather History Graph

Search for Another Location

Airport or City:

Trip Planner

Search our weather history database for the weather conditions in past years. The results will help you decide how hot, cold, wet, or windy it might be!

Date:

Astronomy

Jan. 01, 2014 Rise Set
Actual Time 8:39 AM AKST 3:24 PM AKST
Civil Twilight 7:49 AM AKST 4:14 PM AKST
Nautical Twilight 6:58 AM AKST 5:05 PM AKST
Astronomical Twilight 6:11 AM AKST 5:53 PM AKST
Moon 8:19 AM AKST (1/1) 4:38 PM AKST (1/1)
Length of Visible Light 8h 24m
Length of Day
6h 44m
New Moon, 0% of the Moon is Illuminated
Jan 1
New Moon
Jan 7
First Quarter
Jan 15
Full
Jan 23
Last Quarter
Jan 30
New

Hourly Weather History & Observations

Time (AKST) Temp. Windchill Dew Point Humidity Pressure Visibility Wind Dir Wind Speed Gust Speed Precip Events Conditions
12:21 AM 42.8 °F 38.6 °F 41.0 °F 93% 29.86 in 10.0 mi East 6.9 mph - 0.00 in Rain Light Rain
12:56 AM 43.0 °F 37.2 °F 41.0 °F 93% 29.86 in 10.0 mi ESE 10.4 mph - 0.00 in Rain Light Rain
1:56 AM 43.0 °F 36.8 °F 39.9 °F 89% 29.83 in 9.0 mi ESE 11.5 mph - 0.01 in Rain Light Rain
2:56 AM 42.8 °F 36.2 °F 39.2 °F 87% 29.78 in 10.0 mi ESE 12.7 mph - N/A Rain Light Rain
3:56 AM 41.9 °F 36.9 °F 38.8 °F 89% 29.75 in 8.0 mi East 8.1 mph - 0.01 in Rain Light Rain
4:56 AM 41.0 °F 34.7 °F 38.8 °F 92% 29.72 in 9.0 mi ESE 10.4 mph - 0.00 in Rain Light Rain
5:56 AM 42.8 °F 36.6 °F 39.2 °F 87% 29.68 in 9.0 mi ESE 11.5 mph 20.7 mph N/A Rain Light Rain
6:56 AM 41.9 °F 35.9 °F 38.8 °F 89% 29.66 in 10.0 mi East 10.4 mph - 0.01 in Rain Light Rain
7:56 AM 41.9 °F 36.9 °F 39.9 °F 93% 29.63 in 10.0 mi East 8.1 mph - 0.00 in Rain Light Rain
8:56 AM 41.9 °F 37.5 °F 38.8 °F 89% 29.64 in 9.0 mi East 6.9 mph - 0.01 in Rain Light Rain
9:56 AM 41.9 °F 38.2 °F 39.9 °F 93% 29.63 in 5.0 mi Variable 5.8 mph - 0.00 in Rain Light Rain
10:56 AM 41.9 °F - 39.9 °F 93% 29.65 in 4.0 mi Calm Calm - 0.03 in Rain Light Rain
11:30 AM 104.0 °F - - N/A% 29.67 in 2.5 mi Calm Calm - 0.04 in Rain Rain
11:35 AM 104.0 °F - - N/A% 29.67 in 1.8 mi Calm Calm - 0.05 in Rain Rain
11:39 AM 57.2 °F - - N/A% 29.67 in 1.0 mi Calm Calm - 0.08 in Rain Heavy Rain
11:44 AM 55.4 °F - 55.4 °F 100% 29.67 in 0.8 mi Calm Calm - 0.10 in Rain Heavy Rain
11:49 AM 42.8 °F - 41.0 °F 93% 29.67 in 1.2 mi Calm Calm - 0.11 in Rain Rain
11:56 AM 42.8 °F - 39.2 °F 87% 29.68 in 3.0 mi Calm Calm - N/A Rain Light Rain
12:10 PM 42.8 °F 41.1 °F 39.2 °F 87% 29.69 in 4.0 mi Variable 3.5 mph - 0.01 in Rain Light Rain
12:56 PM 41.0 °F - 39.9 °F 96% 29.74 in 7.0 mi Calm Calm - 0.01 in   Overcast
1:19 PM 44.6 °F - 44.6 °F 100% 29.74 in 1.8 mi Calm Calm - N/A   Overcast
1:28 PM - - - N/A% 29.75 in 3.0 mi Calm Calm - N/A   Overcast
1:56 PM 39.9 °F - 38.8 °F 96% 29.77 in 10.0 mi Calm Calm - N/A   Mostly Cloudy
2:56 PM - - - N/A% 29.80 in 10.0 mi Calm Calm - N/A   Mostly Cloudy
3:56 PM - - - N/A% 29.83 in 10.0 mi Calm Calm - 0.00 in   Scattered Clouds
4:56 PM - - - N/A% 29.85 in 10.0 mi Calm Calm - 0.00 in   Mostly Cloudy
5:56 PM - - - N/A% 29.88 in 10.0 mi Calm Calm - N/A   Mostly Cloudy
6:56 PM - - - N/A% 29.90 in 7.0 mi Calm Calm - 0.00 in   Mostly Cloudy
7:56 PM - - - N/A% 29.92 in 10.0 mi Calm Calm - 0.00 in Rain Light Rain
8:24 PM - - - N/A% 29.92 in 10.0 mi ESE 4.6 mph - 0.00 in Rain Light Rain
8:56 PM - - - N/A% 29.93 in 10.0 mi Calm Calm - N/A   Overcast
9:56 PM - - - N/A% 29.94 in 4.0 mi Calm Calm - N/A   Haze
10:03 PM - - - N/A% 29.94 in 8.0 mi Calm Calm - N/A   Overcast
10:13 PM - - - N/A% 29.94 in 10.0 mi Calm Calm - N/A   Overcast
10:56 PM - - - N/A% 29.94 in 10.0 mi Calm Calm - 0.00 in   Overcast
11:16 PM - - - N/A% 29.93 in 10.0 mi SE 3.5 mph - N/A   Scattered Clouds
11:28 PM - - - N/A% 29.92 in 10.0 mi Calm Calm - N/A   Mostly Cloudy
11:56 PM - - - N/A% 29.92 in 10.0 mi Calm Calm - N/A   Mostly Cloudy